sat.trackr.live / text

‹ back to catalog

STARLINK-36779

NORAD 67869 · 2026-034V

PAYLOAD ACTIVE UNKNOWN

§ Identity

Operator
Country
US
Launch date
2026-02-20
Launch site
AFETR
Launch vehicle
Mass (kg)
RCS (m²)

Purposes: comms

External: N2YO · Heavens-Above · Gunter

§ Orbital elements

Epoch: 2026-05-25T04:37:11.663040Z

Period
93.85 min
Inclination
53.1578°
Eccentricity
0.0000943
Mean motion
15.34423623 rev/d
Perigee alt
462.0 km
Apogee alt
463.3 km
Semi-major
6,840.8 km
B*
5.9840e-4
RAAN
207.1191°
Arg perigee
92.8000°
Mean anomaly
267.3110°
Rev number
1,576

§ Raw data

STARLINK-367791 67869U 26034V   26145.19249610  .00019910  00000+0  59840-3 0  99992 67869  53.1578 207.1191 0000943  92.8000 267.3110 15.34423623 15765

JSON: /api/v1/satellites/67869 · /tle

For live sub-satellite position, see the globe view (requires WebGL).

§ Visibility from observer

Set your observer location to see the next 7 days of passes ≥ 10°. The values pass through the URL so the page stays shareable.

No JS? Fill the form by hand. The geolocation button needs JavaScript.